This is the latest recevied weather packets stored in our database for station/object ON5MM-5. If no packets are shown the sender has not sent any weather packets the latest 10 day(s).
| Time | Temp. | Humidity | Pressure | Rain* | Wind** | Luminosity | Snow |
|---|---|---|---|---|---|---|---|
| 1777631703 | 20.56° C | 23% | 1025.7 hPa | 0 mm | 3.58 m/s, ° | - | - |
| 1777631403 | 20.56° C | 24% | 1025.8 hPa | 0 mm | 4.47 m/s, ° | - | - |
| 1777631102 | 20.56° C | 26% | 1025.6 hPa | 0 mm | 3.13 m/s, ° | - | - |
| 1777630802 | 20.56° C | 25% | 1025.8 hPa | 0 mm | 3.13 m/s, ° | - | - |
| 1777630502 | 20° C | 24% | 1025.8 hPa | 0 mm | 3.58 m/s, ° | - | - |
| 1777630202 | 20° C | 25% | 1025.9 hPa | 0 mm | 4.02 m/s, ° | - | - |
| 1777629902 | 20° C | 24% | 1025.9 hPa | 0 mm | 3.13 m/s, ° | - | - |
| 1777629603 | 20° C | 24% | 1025.9 hPa | 0 mm | 3.58 m/s, ° | - | - |
| 1777629001 | 20° C | 23% | 1026.1 hPa | 0 mm | 4.02 m/s, ° | - | - |
| 1777628402 | 20° C | 25% | 1026 hPa | 0 mm | 3.13 m/s, ° | - | - |
| 1777628102 | 19.44° C | 24% | 1026.1 hPa | 0 mm | 3.58 m/s, ° | - | - |
| 1777627801 | 20° C | 24% | 1026 hPa | 0 mm | 4.02 m/s, ° | - | - |
| 1777627502 | 19.44° C | 25% | 1026 hPa | 0 mm | 3.13 m/s, ° | - | - |
| 1777627202 | 19.44° C | 25% | 1026 hPa | 0 mm | 3.13 m/s, ° | - | - |
| 1777626901 | 18.89° C | 25% | 1026.2 hPa | 0 mm | 4.47 m/s, ° | - | - |
| 1777626602 | 18.89° C | 24% | 1026.1 hPa | 0 mm | 4.47 m/s, ° | - | - |
| 1777626303 | 18.89° C | 25% | 1026.1 hPa | 0 mm | 3.13 m/s, ° | - | - |
| 1777626002 | 18.89° C | 25% | 1026 hPa | 0 mm | 3.58 m/s, ° | - | - |
| 1777625702 | 18.89° C | 26% | 1026.1 hPa | 0 mm | 3.58 m/s, ° | - | - |
| 1777625402 | 18.33° C | 25% | 1026.1 hPa | 0 mm | 2.68 m/s, ° | - | - |
| 1777625102 | 18.33° C | 25% | 1026.2 hPa | 0 mm | 3.58 m/s, ° | - | - |
| 1777624803 | 18.33° C | 25% | 1026.1 hPa | 0 mm | 4.02 m/s, ° | - | - |
| 1777624502 | 18.33° C | 26% | 1026.1 hPa | 0 mm | 3.13 m/s, ° | - | - |
| 1777624202 | 18.33° C | 26% | 1026 hPa | 0 mm | 3.58 m/s, ° | - | - |
| 1777623902 | 18.33° C | 26% | 1026.1 hPa | 0 mm | 3.13 m/s, ° | - | - |
* Rain latest hour (hover to see other rain measurements)
** Current wind speed in m/s (hover to see current wind gust speed)